Regional Weather Roundup
Issued by NWS

Home | Current Version | Previous Version | Text Only | Print | Product List | Glossary Off
Versions: 1 2 3 4 5 6 7 8 9 10 11 12 13 14 15 16 17 18 19 20 21 22 23 24 25 26 27 28

000
ASUS45 KPSR 241410
RWRAZ

ARIZONA HOURLY REGIONAL WEATHER ROUNDUP
NATIONAL WEATHER SERVICE PHOENIX AZ
700 AM MST SUN SEP 24 2017

NOTE: FAIR INDICATES FEW OR NO CLOUDS BELOW 12,000 FEET WITH NO
SIGNIFICANT WEATHER AND/OR OBSTRUCTIONS TO VISIBILITY.

AZZ001>003-036-241500-
NORTHWEST ARIZONA

CITY           SKY/WX    TMP DP  RH WIND       PRES   REMARKS
BULLHEAD CITY  CLEAR     64  37  36 N12       29.93R
KINGMAN        CLEAR     44  32  62 E8        29.99R
$$

AZZ004>008-015-016-018-241500-
NORTH CENTRAL ARIZONA

CITY           SKY/WX    TMP DP  RH WIND       PRES   REMARKS
GRAND CANYON   PTCLDY    26  20  77 CALM      30.01R
WILLIAMS       CLEAR     27  19  74 S5        30.01R WCI  21
PRESCOTT       CLEAR     37  24  59 SW3       29.98R
FLAGSTAFF      CLEAR     34  18  52 VRB3      30.00R
PAYSON           N/A     43  21  42 N5        29.97S
PAGE           CLEAR     47  32  56 NE5       29.94R
$$

AZZ009>014-017-241500-
NORTHEAST ARIZONA

CITY           SKY/WX    TMP DP  RH WIND       PRES   REMARKS
WINSLOW        CLEAR     40  20  44 CALM      29.98R
SAINT JOHNS    CLEAR     41  22  46 S3        29.99R
WINDOW ROCK    SUNNY     32  24  72 CALM      30.01R
SHOW LOW       CLEAR     37  28  70 CALM      30.02R
$$

AZZ540-542>544-546-548-241500-
GREATER PHOENIX AREA

CITY           SKY/WX    TMP DP  RH WIND       PRES   REMARKS
PHOENIX        CLEAR     63  33  32 CALM      29.81R
BUCKEYE        CLEAR     59  23  25 N9        29.84R
GLENDALE       CLEAR     63  28  27 NW8       29.83
LUKE AFB       CLEAR     63  31  30 NW9       29.81R
DEER VALLEY    CLEAR     60  26  27 CALM      29.82R
SCOTTSDALE     CLEAR     61  33  35 VRB3      29.83R
MESA-GATEWAY   CLEAR     55  28  35 NE5       29.83R
CHANDLER       CLEAR     57  37  47 CALM      29.82R
$$

AZZ539-553-241500-
SOUTHWEST MARICOPA COUNTY AND PINAL COUNTY

CITY           SKY/WX    TMP DP  RH WIND       PRES   REMARKS
CASA GRANDE    NOT AVBL
GILA BEND      FAIR      57  26  30 SE6       29.82R
$$

AZZ503-504-507>509-241500-
SOUTHEAST ARIZONA

CITY           SKY/WX    TMP DP  RH WIND       PRES   REMARKS
TUCSON         CLEAR     57  32  38 S8        29.88R
DAVIS-MONTHAN  CLEAR     55  29  37 SE5       29.87R
RYAN FIELD     CLEAR     54  30  40 MISG      29.88R
NOGALES        CLEAR     50  39  66 CALM      29.91R
SIERRA VISTA   CLEAR     57  32  39 CALM      29.95R
DOUGLAS        MOSUNNY   54  30  40 N5        29.92R
SAFFORD        SUNNY     53  21  28 CALM      29.88R
$$

AZZ532-241500-
SOUTHWEST ARIZONA

CITY           SKY/WX    TMP DP  RH WIND       PRES   REMARKS
YUMA           CLEAR     69  29  22 N8        29.82R
$$

CAZ041-043-047-048-061-525>527-560>570-241500-
SOUTHERN CALIFORNIA

CITY           SKY/WX    TMP DP  RH WIND       PRES   REMARKS
DOWNTOWN L.A.  CLEAR     60  51  72 CALM      29.86R
L.A. AIRPORT   CLEAR     60  53  77 SE6       29.87R
SAN DIEGO      CLEAR     60  52  74 CALM      29.88R
BURBANK        CLEAR     54  42  64 N3        29.87R
ONTARIO        CLEAR     55  48  77 CALM      29.88R
RIVERSIDE      CLEAR     53  49  86 E5        29.89R
PALM SPRINGS   CLEAR     64  38  38 NW6       29.90R
EL CENTRO NAS  CLEAR     62  37  39 N9        29.86R
IMPERIAL       CLEAR     63  45  51 N6        29.84R
BLYTHE         CLEAR     67  31  26 N14       29.87R
NEEDLES        CLEAR     64  37  36 N9        29.93R
$$

NVZ020-UTZ003-241500-
SOUTHERN NEVADA-UTAH

CITY           SKY/WX    TMP DP  RH WIND       PRES   REMARKS
LAS VEGAS      CLEAR     55  32  41 CALM      29.98R
SALT LAKE CITY CLOUDY    47  43  86 NW12      29.90R
$$

NMZ009-TXZ055-241500-
NEW MEXICO-WEST TEXAS

CITY           SKY/WX    TMP DP  RH WIND       PRES   REMARKS
ALBUQUERQUE    MOSUNNY   52  34  50 SE6       29.98R
EL PASO        MOSUNNY   69  47  45 CALM      29.90R
$$


........................KEY........................
SKY/WX - SKY CONDITION/WEATHER
TMP    - TEMPERATURE IN FAHRENHEIT
DP     - DEW POINT IN FAHRENHEIT
RH     - RELATIVE HUMIDITY IN PERCENT
WIND   - DIRECTION AND SPEED IN MILES PER HOUR (MPH)
VRB    - VARIABLE WIND DIRECTION
PRES   - MEAN SEA LEVEL PRESSURE IN INCHES OF MERCURY
         F - FALLING PRESSURE   R - RISING PRESSURE
         S - STEADY PRESSURE
VSB    - VISIBILITY IN MILES
HX     - HEAT INDEX IN FAHRENHEIT
WCI    - WIND CHILL INDEX IN FAHRENHEIT
TC     - TEMPERATURE IN CELSIUS WHICH IS ALSO KNOWN AS
         TEMPERATURE IN CENTIGRADE
AFB    - AIR FORCE BASE
         LUKE AFB IS LUKE AIR FORCE BASE
         DAVIS-MONTHAN IS DAVIS-MONTHAN AIR FORCE BASE
NAS    - NAVAL AIR STATION
         EL CENTRO NAS IS EL CENTRO NAVAL AIR STATION
N/A    - NOT AVAILABLE





USA.gov is the U.S. government's official web portal to all federal, state and local government web resources and services.